Temp
62 61 62 61 61 62 61 61 61 61 61 62 61 61 61 61 61 60 60 60 60 61 61 59 58 58 58 59 59 57 58 57 56 55 54 54 53 54 57 55 56 57 56 56 56 53 53 51 54 59 60 59 60 60 59 57 56 55 54 54 55 54 55
62 62 62 63 61 62 60 60 60 60 60 60 60 60 60 61 62 60 60 60 60 60 60 59 58 58 57 57 56 56 55 55 56 56 54 53 53 52 53 53 54 54 55 55 55 55 53 51 52 54 54 58 59 59 59 57 56 55 55 54 55 54 55
62 61 61 60 60 60 60 59 59 59 59 59 59 59 59 59 60 60 60 60 60 60 60 58 57 57 57 56 56 55 55 54 54 55 54 53 53 53 52 52 51 52 53 53 52 52 54 55 50 52 53 52 52 56 58 56 55 54 54 54 54 54 54
61 61 60 60 60 59 59 58 58 58 59 58 59 59 58 59 60 61 60 60 60 60 58 57 57 56 56 55 55 55 54 54 53 53 53 53 52 52 51 51 50 50 49 49 49 50 51 51 51 52 53 54 53 53 55 56 55 54 54 54 54 53 53
62 61 61 59 60 59 59 58 58 58 58 58 58 58 58 59 59 59 60 59 58 58 57 57 57 56 56 55 55 54 54 53 54 53 52 51 51 51 51 51 51 51 50 50 50 51 50 50 50 50 51 52 54 55 56 54 55 54 53 53 53 53 53
62 62 61 60 60 59 59 58 58 57 57 58 57 57 57 58 59 58 58 58 57 58 57 57 56 56 55 55 54 53 53 52 52 52 51 51 51 50 50 51 51 50 50 51 51 51 51 51 50 48 51 52 50 52 54 52 50 53 53 53 53 54 53
62 62 61 61 60 59 59 59 58 58 58 58 57 57 57 58 58 58 58 57 58 57 57 56 56 56 55 54 53 53 52 52 52 51 51 51 50 50 51 50 50 50 50 51 51 51 50 50 49 47 48 51 52 51 52 51 51 49 51 53 54 54 53
62 62 61 61 60 59 59 59 58 58 58 57 57 57 58 58 57 58 58 57 57 56 56 56 55 55 55 54 54 53 53 52 52 52 51 50 50 49 49 50 50 50 50 51 51 50 51 50 49 48 48 46 48 49 47 49 49 49 48 52 54 53 52
62 61 61 60 60 60 59 59 58 57 57 57 57 57 58 58 57 57 57 56 56 56 55 55 54 54 54 53 52 52 52 53 51 51 50 50 49 49 49 49 50 49 50 51 51 51 51 51 50 49 48 46 44 43 45 44 46 46 50 48 51 53 51
61 61 60 59 59 59 59 59 58 57 57 58 57 57 57 57 56 56 56 55 55 55 55 54 54 53 53 53 52 52 51 52 52 50 50 50 49 49 49 49 49 49 50 51 51 51 51 51 51 50 49 46 45 42 41 42 43 43 48 48 45 50 52
62 61 60 59 59 59 58 58 58 58 58 58 58 58 56 56 57 57 55 55 55 54 54 54 54 53 53 52 51 51 51 51 51 51 51 50 49 50 49 49 49 49 50 50 50 50 50 50 50 49 49 48 47 44 42 41 42 45 45 48 48 47 50
61 60 60 60 59 59 58 58 58 57 57 57 57 56 55 55 55 55 55 54 54 54 54 53 53 53 52 52 52 51 51 51 50 49 50 50 50 50 49 48 49 49 49 49 50 50 50 50 49 50 49 49 48 46 44 43 41 46 47 45 47 50 48
60 60 60 59 59 59 59 58 57 57 56 57 56 56 55 55 55 54 54 54 54 53 53 53 53 52 51 51 50 50 50 50 49 49 48 49 49 49 49 48 48 48 49 49 49 49 49 50 50 49 49 49 48 47 46 44 42 43 48 46 47 48 49
59 60 60 60 59 58 58 58 58 58 57 56 56 55 55 54 55 55 55 55 54 53 53 52 52 52 51 50 50 50 49 50 49 49 49 48 49 49 49 48 48 48 49 48 48 49 49 49 50 49 49 49 48 48 46 45 43 44 47 49 48 47 49
59 59 59 59 59 59 59 58 58 58 56 55 56 55 54 54 54 55 55 54 54 53 53 52 52 52 51 50 50 50 49 49 48 48 48 48 48 48 48 48 48 48 48 48 48 48 48 49 49 49 48 48 47 47 47 45 44 43 43 47 47 49 48
59 59 59 59 59 59 58 57 58 57 56 55 55 55 54 54 54 55 54 54 54 53 53 52 52 51 51 50 49 48 48 48 48 48 47 47 47 48 48 47 47 48 49 48 48 48 48 48 48 48 47 48 47 47 47 46 45 43 43 44 46 46 46
58 59 59 59 58 57 57 57 58 57 55 55 54 53 53 53 54 54 54 53 53 53 52 52 51 51 50 50 49 48 48 48 47 47 47 47 47 47 47 47 46 47 48 48 47 48 48 48 48 48 47 48 47 47 47 47 46 44 44 43 45 46 46
58 59 58 58 57 57 56 56 57 56 55 53 53 53 53 53 53 54 53 53 53 52 52 52 51 50 50 49 49 48 47 47 47 47 47 48 49 47 47 46 46 46 47 48 47 47 47 47 47 48 47 48 48 47 47 47 46 46 45 43 44 47 47
59 58 57 56 56 56 56 56 55 55 54 52 52 52 52 52 53 53 53 53 53 52 52 51 51 50 49 49 48 48 48 47 47 47 46 46 46 47 47 47 46 46 46 47 46 47 47 47 47 47 47 47 47 47 46 46 47 46 46 45 44 44 46
58 57 56 55 55 55 55 55 55 54 53 53 52 51 51 51 52 52 52 52 52 51 51 50 50 49 49 48 48 47 46 46 46 46 46 46 46 46 47 48 48 47 47 47 47 47 47 47 47 47 47 47 47 47 46 46 46 46 45 45 45 45 45
57 56 55 55 54 53 53 53 53 52 52 51 51 51 50 50 50 51 51 51 51 51 50 49 49 48 48 48 47 46 46 46 46 46 46 46 46 47 47 48 49 50 49 48 48 47 48 48 48 47 47 48 47 46 46 46 46 46 45 45 44 44 45
56 55 54 53 52 52 51 51 51 51 51 51 50 50 50 50 50 49 49 50 50 50 49 49 48 48 47 47 47 46 46 46 46 46 45 46 45 46 47 49 51 52 53 52 50 50 50 49 48 48 47 47 47 46 46 45 45 46 45 44 44 45 45
56 55 54 53 51 51 50 50 50 50 49 49 49 49 49 50 50 49 49 48 49 48 48 48 50 48 48 48 46 46 45 45 46 46 46 46 46 46 46 46 51 53 53 51 49 46 45 46 48 48 47 46 46 46 45 45 45 45 45 43 42 43 43
55 54 53 52 51 50 50 49 49 48 48 48 48 49 49 48 48 49 49 48 47 47 47 49 45 43 44 45 46 46 45 44 45 45 45 46 46 46 46 46 46 51 49 49 49 44 44 43 43 43 44 45 46 46 45 45 44 44 45 43 43 42 42
55 54 53 52 51 50 49 49 48 48 48 47 47 48 47 47 47 47 47 47 46 46 46 46 42 43 43 43 46 46 45 45 44 44 44 44 45 45 45 45 45 46 49 49 48 48 47 44 43 44 43 43 42 41 42 44 45 44 44 43 42 41 42
54 53 53 52 51 50 49 48 47 47 47 47 47 46 46 46 46 46 46 46 45 45 45 43 42 42 42 42 42 45 44 44 44 43 43 43 43 44 46 46 46 45 47 51 49 47 49 49 46 45 45 45 46 44 40 40 42 45 45 43 43 41 40
54 53 53 52 51 50 49 48 47 47 47 47 46 45 45 45 45 45 45 45 44 43 43 43 41 42 42 41 41 43 43 43 43 43 43 43 43 43 44 46 46 46 45 46 46 46 47 47 47 47 47 46 46 46 44 42 41 42 44 44 43 42 42
54 53 52 52 51 50 49 48 48 47 47 46 45 45 44 44 44 44 44 43 43 42 43 42 41 41 41 41 41 42 43 43 43 42 42 42 42 42 43 43 44 44 44 45 47 46 47 47 47 46 46 46 45 45 45 45 45 46 46 45 44 44 44
54 53 52 51 51 50 49 48 47 47 46 44 44 44 43 44 43 43 43 43 43 41 42 40 41 41 41 41 42 44 43 43 43 43 43 43 43 42 42 43 43 43 44 45 45 44 45 48 47 46 45 45 45 45 46 45 42 43 45 45 45 45 45
53 52 51 50 50 49 48 47 46 47 44 43 43 43 43 43 43 43 43 43 42 41 41 41 40 41 41 41 42 43 43 43 43 42 42 42 43 44 44 43 42 43 43 45 44 42 42 46 46 45 45 44 44 45 46 46 44 41 40 41 40 40 39
52 51 50 49 48 47 47 47 47 47 45 44 43 43 43 42 42 43 43 41 42 41 41 42 41 41 41 41 44 44 44 43 42 42 41 41 42 44 47 48 45 42 43 44 41 41 42 46 46 45 45 45 45 45 46 45 45 45 42 41 41 40 39
52 51 49 48 48 46 47 47 47 46 45 45 43 43 43 42 41 41 42 42 46 43 41 43 41 41 41 41 43 43 44 44 43 42 42 42 41 42 43 45 45 44 44 42 39 41 42 46 46 45 45 45 45 45 45 43 44 45 46 46 45 45 44
52 51 50 48 47 46 47 47 46 45 44 44 43 42 43 42 42 41 42 43 44 42 42 42 43 40 41 41 42 44 44 45 43 41 42 45 44 42 42 42 44 39 38 38 38 38 40 41 45 44 45 46 45 47 46 44 46 44 44 44 43 43 43
51 50 49 48 47 46 46 46 45 45 44 43 42 41 41 41 41 41 41 41 42 41 43 42 42 40 41 41 41 43 44 44 43 43 42 42 42 42 43 42 43 41 38 39 39 39 39 40 41 44 43 45 44 45 43 45 45 44 44 44 44 44 44
50 49 49 48 46 45 46 47 46 45 44 43 42 41 40 41 40 40 40 40 41 41 44 45 43 41 40 41 41 42 44 43 43 43 42 41 41 41 41 41 42 41 39 38 38 39 39 39 40 45 42 39 39 40 45 44 44 44 44 44 45 45 44
49 49 48 48 46 44 44 45 45 45 44 43 42 41 40 40 40 39 39 40 40 41 42 45 43 43 40 40 40 41 41 41 40 45 44 44 43 42 41 40 43 42 39 38 38 38 39 39 41 41 37 38 39 39 42 43 43 44 43 43 43 43 43
49 48 47 46 45 44 43 44 44 45 45 44 42 41 39 39 40 40 40 40 40 40 41 43 42 42 42 39 40 40 39 39 40 42 44 43 41 40 40 40 42 39 39 38 38 38 38 39 40 38 38 38 38 40 43 44 43 42 42 43 43 43 43
MSLP
1018.04 1018.52 1018.76 1018.92 1018.96 1019.04 1019.24 1019.44 1019.56 1019.76 1019.76 1019.76 1019.72 1019.76 1019.72 1019.72 1019.76 1019.84 1019.84 1019.96 1020.12 1020.24 1020.28 1020.44 1020.56 1020.60 1020.64 1020.76 1020.88 1021.00 1020.96 1021.00 1021.12 1021.36 1021.64 1021.60 1021.44 1021.20 1020.92 1020.80 1020.68 1020.72 1020.72 1020.68 1020.84 1020.64 1020.56 1020.52 1019.84 1019.48 1019.40 1019.40 1019.24 1019.28 1019.40 1019.52 1019.52 1019.52 1019.48 1019.24 1019.00 1018.80 1018.52
1018.20 1018.56 1018.80 1018.96 1019.16 1019.28 1019.48 1019.72 1019.80 1019.92 1019.92 1019.92 1019.92 1019.92 1019.92 1019.92 1019.92 1020.00 1020.08 1020.16 1020.32 1020.48 1020.52 1020.68 1020.76 1020.80 1020.92 1021.08 1021.16 1021.20 1021.28 1021.40 1021.48 1021.68 1021.80 1021.96 1021.80 1021.84 1021.36 1021.20 1021.12 1020.96 1020.84 1020.84 1021.00 1020.80 1020.52 1020.64 1020.24 1020.04 1019.84 1019.52 1019.36 1019.36 1019.52 1019.72 1019.84 1019.76 1019.72 1019.60 1019.36 1019.16 1018.84
1018.60 1018.96 1018.92 1019.24 1019.40 1019.52 1019.72 1020.00 1020.08 1020.12 1020.12 1020.12 1020.12 1020.08 1020.08 1020.08 1020.12 1020.12 1020.24 1020.36 1020.52 1020.60 1020.72 1020.84 1020.88 1021.00 1021.20 1021.36 1021.48 1021.52 1021.56 1021.72 1021.92 1021.92 1022.08 1022.12 1022.04 1022.00 1021.92 1021.84 1021.56 1021.36 1021.12 1021.12 1021.20 1021.36 1020.80 1020.68 1020.92 1020.48 1020.48 1020.28 1019.96 1019.80 1019.76 1019.96 1020.12 1020.04 1019.88 1019.72 1019.56 1019.32 1019.08
1019.04 1019.16 1019.28 1019.48 1019.56 1019.72 1019.96 1020.20 1020.28 1020.32 1020.32 1020.32 1020.28 1020.28 1020.24 1020.20 1020.24 1020.28 1020.40 1020.56 1020.64 1020.76 1020.92 1021.00 1021.16 1021.32 1021.52 1021.60 1021.68 1021.68 1021.84 1022.08 1022.24 1022.28 1022.20 1022.24 1022.20 1022.16 1022.16 1022.12 1022.20 1022.16 1022.20 1022.08 1022.20 1021.96 1021.60 1021.32 1021.00 1020.72 1020.64 1020.56 1020.32 1020.12 1020.08 1020.20 1020.28 1020.32 1020.20 1020.04 1019.80 1019.68 1019.48
1018.04 1018.96 1019.20 1019.40 1019.48 1019.64 1019.92 1020.24 1020.40 1020.44 1020.44 1020.44 1020.44 1020.48 1020.48 1020.44 1020.44 1020.56 1020.64 1020.80 1020.92 1021.04 1021.20 1021.28 1021.40 1021.56 1021.72 1021.76 1021.88 1022.04 1022.28 1022.44 1022.48 1022.48 1022.52 1022.52 1022.52 1022.52 1022.56 1022.52 1022.52 1022.56 1022.48 1022.48 1022.44 1022.36 1022.08 1021.80 1021.64 1021.36 1021.08 1020.88 1020.28 1020.20 1020.36 1020.48 1020.36 1020.40 1020.40 1020.28 1020.20 1020.12 1019.88
1017.96 1018.56 1019.32 1019.44 1019.52 1019.64 1019.84 1020.12 1020.28 1020.40 1020.44 1020.48 1020.60 1020.64 1020.68 1020.68 1020.68 1020.80 1020.96 1021.04 1021.24 1021.32 1021.44 1021.52 1021.72 1021.84 1021.92 1022.00 1022.20 1022.40 1022.60 1022.72 1022.84 1022.80 1022.84 1022.92 1022.84 1022.84 1022.92 1022.88 1022.84 1022.76 1022.80 1022.80 1022.68 1022.56 1022.36 1022.04 1022.00 1021.80 1021.44 1021.16 1021.04 1020.72 1020.60 1020.96 1020.92 1020.48 1020.48 1020.44 1020.36 1020.24 1020.08
1018.20 1018.36 1019.08 1019.36 1019.60 1019.68 1019.76 1019.92 1020.08 1020.20 1020.28 1020.40 1020.60 1020.68 1020.76 1020.80 1020.92 1021.04 1021.16 1021.32 1021.44 1021.56 1021.64 1021.80 1021.96 1022.08 1022.16 1022.32 1022.52 1022.68 1022.88 1023.04 1023.04 1023.08 1023.12 1023.16 1023.16 1023.16 1023.08 1023.04 1023.08 1023.08 1023.04 1022.96 1022.88 1022.68 1022.56 1022.24 1022.24 1022.32 1022.04 1021.32 1020.88 1021.00 1021.20 1021.20 1021.32 1020.92 1020.52 1020.52 1020.52 1020.40 1020.20
1018.08 1018.40 1018.96 1019.24 1019.48 1019.72 1019.88 1020.00 1020.16 1020.24 1020.28 1020.48 1020.56 1020.68 1020.84 1020.96 1021.12 1021.20 1021.32 1021.52 1021.72 1021.84 1021.92 1022.08 1022.24 1022.32 1022.40 1022.52 1022.72 1022.92 1023.08 1023.24 1023.32 1023.32 1023.36 1023.36 1023.40 1023.40 1023.32 1023.32 1023.32 1023.28 1023.28 1023.20 1023.04 1022.92 1022.72 1022.60 1022.60 1022.60 1022.28 1021.76 1021.12 1021.32 1021.80 1021.72 1021.60 1021.52 1021.72 1020.84 1020.72 1020.56 1020.48
1018.08 1018.44 1018.96 1019.32 1019.52 1019.60 1019.80 1019.92 1020.16 1020.28 1020.36 1020.48 1020.64 1020.76 1020.96 1021.00 1021.20 1021.40 1021.56 1021.80 1021.96 1022.08 1022.20 1022.36 1022.44 1022.56 1022.68 1022.80 1023.04 1023.16 1023.36 1023.52 1023.56 1023.52 1023.64 1023.56 1023.64 1023.64 1023.60 1023.56 1023.40 1023.56 1023.48 1023.36 1023.16 1023.04 1022.88 1022.80 1022.72 1022.72 1022.64 1022.60 1022.28 1021.68 1022.32 1022.24 1021.96 1021.80 1021.68 1021.60 1020.92 1020.88 1020.84
1018.08 1018.40 1018.84 1019.24 1019.52 1019.68 1019.80 1019.96 1020.16 1020.36 1020.40 1020.56 1020.76 1020.92 1021.12 1021.28 1021.40 1021.52 1021.80 1022.04 1022.20 1022.32 1022.48 1022.56 1022.64 1022.76 1022.92 1023.08 1023.32 1023.44 1023.68 1023.80 1023.72 1023.84 1023.88 1023.84 1023.92 1023.84 1023.76 1023.72 1023.72 1023.72 1023.68 1023.48 1023.28 1023.16 1023.08 1022.92 1022.92 1022.92 1023.00 1023.12 1023.12 1022.92 1022.84 1022.28 1022.44 1022.56 1021.80 1021.96 1021.88 1021.20 1021.16
1017.96 1018.36 1018.76 1019.20 1019.48 1019.72 1019.92 1020.08 1020.28 1020.32 1020.48 1020.68 1020.88 1021.12 1021.32 1021.48 1021.60 1021.72 1022.00 1022.28 1022.44 1022.56 1022.68 1022.76 1022.84 1023.00 1023.16 1023.44 1023.60 1023.76 1023.96 1024.00 1023.96 1024.00 1024.08 1024.08 1024.12 1024.04 1024.00 1023.96 1023.88 1023.84 1023.84 1023.60 1023.56 1023.44 1023.32 1023.28 1023.20 1023.24 1023.28 1023.32 1023.28 1023.32 1023.48 1022.72 1022.60 1022.76 1022.60 1022.16 1022.20 1022.00 1021.48
1018.08 1018.44 1018.84 1019.12 1019.40 1019.64 1019.88 1020.08 1020.20 1020.32 1020.56 1020.76 1020.96 1021.20 1021.48 1021.68 1021.84 1022.00 1022.20 1022.48 1022.64 1022.80 1022.88 1023.00 1023.08 1023.24 1023.44 1023.68 1023.84 1024.08 1024.24 1024.20 1024.16 1024.28 1024.36 1024.28 1024.36 1024.20 1024.12 1024.12 1024.12 1024.08 1024.04 1023.88 1023.76 1023.64 1023.56 1023.48 1023.52 1023.52 1023.52 1023.44 1023.56 1023.60 1023.56 1023.32 1022.72 1022.72 1022.88 1022.76 1022.40 1022.24 1022.00
1018.16 1018.44 1018.80 1019.12 1019.44 1019.64 1019.80 1020.00 1020.20 1020.36 1020.60 1020.84 1021.04 1021.28 1021.56 1021.80 1021.96 1022.16 1022.40 1022.60 1022.84 1022.96 1023.12 1023.24 1023.32 1023.52 1023.72 1023.96 1024.16 1024.32 1024.48 1024.40 1024.40 1024.52 1024.60 1024.60 1024.52 1024.44 1024.32 1024.36 1024.44 1024.40 1024.28 1024.08 1024.00 1023.96 1023.88 1023.84 1023.80 1023.76 1023.76 1023.64 1023.64 1023.72 1023.68 1023.56 1023.32 1023.36 1022.96 1023.04 1022.84 1022.40 1022.12
1018.24 1018.52 1018.84 1019.12 1019.36 1019.64 1019.84 1020.00 1020.16 1020.40 1020.64 1020.88 1021.08 1021.40 1021.68 1021.92 1022.08 1022.24 1022.52 1022.72 1022.92 1023.12 1023.24 1023.44 1023.56 1023.72 1023.92 1024.20 1024.44 1024.56 1024.64 1024.60 1024.56 1024.72 1024.68 1024.76 1024.68 1024.56 1024.56 1024.60 1024.64 1024.64 1024.52 1024.36 1024.40 1024.28 1024.20 1024.16 1024.04 1024.00 1024.00 1023.92 1023.88 1023.88 1023.80 1023.56 1023.52 1023.36 1022.96 1022.96 1022.84 1022.60 1022.24
1018.16 1018.48 1018.76 1019.12 1019.32 1019.60 1019.84 1020.00 1020.16 1020.40 1020.60 1020.96 1021.08 1021.48 1021.80 1022.04 1022.16 1022.36 1022.60 1022.88 1023.08 1023.24 1023.40 1023.56 1023.76 1023.88 1024.12 1024.36 1024.60 1024.76 1024.80 1024.80 1024.80 1024.88 1024.84 1024.88 1024.88 1024.84 1024.80 1024.76 1024.80 1024.80 1024.76 1024.68 1024.64 1024.60 1024.56 1024.48 1024.44 1024.32 1024.36 1024.32 1024.28 1024.16 1024.04 1023.88 1023.88 1023.88 1023.68 1023.00 1022.80 1022.56 1022.32
1018.16 1018.44 1018.76 1019.04 1019.32 1019.60 1019.80 1020.00 1020.12 1020.32 1020.68 1021.00 1021.28 1021.52 1021.84 1022.08 1022.24 1022.44 1022.72 1023.00 1023.20 1023.44 1023.56 1023.76 1023.96 1024.08 1024.28 1024.48 1024.72 1024.96 1025.00 1024.96 1024.92 1024.92 1024.96 1025.04 1025.04 1025.00 1024.92 1025.00 1025.08 1025.04 1024.96 1024.88 1024.88 1024.88 1024.84 1024.80 1024.76 1024.68 1024.68 1024.64 1024.56 1024.40 1024.24 1024.16 1024.00 1024.00 1024.00 1023.60 1023.44 1022.96 1022.64
1018.16 1018.40 1018.72 1019.00 1019.32 1019.60 1019.80 1020.00 1020.16 1020.40 1020.76 1021.08 1021.36 1021.80 1021.96 1022.12 1022.32 1022.52 1022.80 1023.12 1023.32 1023.52 1023.72 1023.92 1024.16 1024.32 1024.48 1024.64 1024.88 1025.12 1025.20 1025.16 1025.16 1025.16 1025.12 1025.12 1025.12 1025.12 1025.12 1025.08 1025.32 1025.32 1025.16 1025.08 1025.08 1025.04 1025.08 1025.08 1025.04 1025.00 1024.92 1024.92 1024.80 1024.64 1024.44 1024.24 1024.24 1024.32 1024.24 1023.84 1023.36 1023.32 1023.12
1018.08 1018.40 1018.72 1019.08 1019.40 1019.64 1019.84 1020.04 1020.24 1020.48 1020.84 1021.20 1021.56 1021.84 1022.16 1022.28 1022.44 1022.60 1022.88 1023.16 1023.44 1023.64 1023.80 1024.04 1024.28 1024.52 1024.72 1024.88 1025.08 1025.28 1025.32 1025.32 1025.32 1025.28 1025.28 1025.32 1025.28 1025.24 1025.28 1025.36 1025.48 1025.44 1025.28 1025.16 1025.24 1025.24 1025.32 1025.24 1025.32 1025.24 1025.24 1025.16 1024.96 1024.80 1024.60 1024.52 1024.52 1024.48 1024.32 1024.20 1023.96 1023.56 1023.40
1018.04 1018.36 1018.76 1019.12 1019.40 1019.64 1019.88 1020.08 1020.36 1020.64 1020.84 1021.28 1021.68 1021.92 1022.16 1022.44 1022.52 1022.76 1023.00 1023.24 1023.44 1023.72 1023.96 1024.16 1024.40 1024.60 1024.84 1025.04 1025.28 1025.44 1025.48 1025.44 1025.44 1025.36 1025.32 1025.36 1025.40 1025.40 1025.36 1025.40 1025.52 1025.48 1025.36 1025.32 1025.40 1025.44 1025.44 1025.44 1025.48 1025.48 1025.40 1025.32 1025.20 1024.96 1024.84 1024.80 1024.76 1024.64 1024.40 1024.36 1024.28 1023.92 1023.48
1018.08 1018.48 1018.84 1019.16 1019.48 1019.72 1019.96 1020.16 1020.36 1020.72 1021.00 1021.24 1021.64 1022.00 1022.32 1022.52 1022.80 1022.88 1023.16 1023.36 1023.56 1023.80 1024.12 1024.36 1024.56 1024.76 1024.96 1025.20 1025.40 1025.48 1025.56 1025.56 1025.52 1025.44 1025.44 1025.44 1025.48 1025.52 1025.48 1025.44 1025.44 1025.48 1025.48 1025.48 1025.40 1025.48 1025.52 1025.60 1025.64 1025.68 1025.68 1025.56 1025.44 1025.20 1025.16 1025.20 1025.12 1024.88 1024.68 1024.48 1024.28 1024.20 1024.00
1018.20 1018.60 1019.00 1019.28 1019.56 1019.88 1020.16 1020.36 1020.60 1020.84 1021.12 1021.40 1021.72 1022.00 1022.32 1022.60 1022.96 1023.12 1023.32 1023.52 1023.76 1023.92 1024.20 1024.48 1024.72 1024.88 1025.08 1025.32 1025.44 1025.60 1025.60 1025.60 1025.52 1025.52 1025.52 1025.56 1025.60 1025.56 1025.52 1025.44 1025.44 1025.44 1025.56 1025.60 1025.52 1025.56 1025.52 1025.68 1025.76 1025.76 1025.84 1025.72 1025.60 1025.44 1025.48 1025.56 1025.40 1025.16 1024.92 1024.68 1024.64 1024.44 1024.28
1018.32 1018.72 1019.08 1019.44 1019.80 1020.12 1020.36 1020.60 1020.80 1021.04 1021.32 1021.60 1021.88 1022.16 1022.44 1022.64 1022.96 1023.32 1023.60 1023.72 1023.92 1024.16 1024.32 1024.52 1024.72 1024.88 1025.16 1025.44 1025.56 1025.60 1025.64 1025.60 1025.56 1025.60 1025.64 1025.68 1025.72 1025.68 1025.60 1025.52 1025.48 1025.48 1025.48 1025.60 1025.60 1025.64 1025.72 1025.76 1025.80 1025.88 1025.92 1025.84 1025.80 1025.76 1025.84 1025.80 1025.72 1025.40 1025.24 1025.12 1025.00 1024.72 1024.44
1018.36 1018.76 1019.16 1019.56 1019.96 1020.28 1020.56 1020.80 1020.96 1021.24 1021.56 1021.80 1022.08 1022.36 1022.60 1022.84 1023.00 1023.24 1023.56 1023.92 1024.12 1024.28 1024.48 1024.60 1024.76 1024.88 1025.00 1025.24 1025.56 1025.68 1025.72 1025.72 1025.72 1025.68 1025.68 1025.76 1025.84 1025.84 1025.80 1025.72 1025.64 1025.60 1025.64 1025.72 1025.76 1025.84 1025.88 1026.00 1026.08 1026.08 1026.12 1026.08 1026.04 1026.04 1026.12 1026.08 1025.92 1025.68 1025.48 1025.44 1025.60 1025.36 1024.84
1018.36 1018.80 1019.20 1019.68 1020.12 1020.44 1020.72 1020.92 1021.20 1021.48 1021.80 1022.04 1022.28 1022.48 1022.68 1022.92 1023.24 1023.40 1023.56 1023.84 1024.16 1024.44 1024.56 1024.68 1024.84 1025.00 1025.20 1025.32 1025.48 1025.64 1025.64 1025.84 1025.88 1025.84 1025.80 1025.76 1025.80 1025.84 1025.84 1025.92 1025.96 1025.92 1025.88 1025.92 1026.04 1026.12 1026.20 1026.24 1026.28 1026.32 1026.32 1026.32 1026.36 1026.40 1026.36 1026.20 1026.16 1026.04 1025.80 1025.92 1026.08 1025.84 1025.64
1018.36 1018.88 1019.24 1019.68 1020.12 1020.48 1020.76 1021.00 1021.28 1021.64 1021.92 1022.24 1022.52 1022.68 1022.92 1023.16 1023.44 1023.64 1023.88 1024.08 1024.24 1024.48 1024.68 1024.84 1024.96 1025.16 1025.32 1025.44 1025.44 1025.64 1025.76 1025.84 1025.96 1025.96 1026.00 1025.92 1025.96 1025.88 1025.84 1025.92 1026.16 1026.16 1026.04 1026.16 1026.24 1026.28 1026.44 1026.48 1026.40 1026.40 1026.40 1026.44 1026.52 1026.64 1026.72 1026.64 1026.40 1026.28 1026.20 1026.12 1026.20 1026.48 1026.16
1018.44 1018.88 1019.24 1019.64 1020.12 1020.48 1020.76 1021.08 1021.44 1021.72 1022.04 1022.36 1022.64 1022.88 1023.24 1023.48 1023.72 1023.92 1023.96 1024.16 1024.44 1024.68 1024.88 1025.08 1025.12 1025.24 1025.36 1025.48 1025.56 1025.64 1025.88 1025.92 1025.92 1026.04 1026.08 1026.04 1026.00 1026.00 1026.00 1025.88 1026.00 1026.32 1026.28 1026.24 1026.40 1026.44 1026.44 1026.56 1026.60 1026.56 1026.52 1026.56 1026.64 1026.80 1026.88 1026.84 1026.76 1026.64 1026.60 1026.52 1026.52 1026.64 1026.76
1018.32 1018.76 1019.16 1019.60 1020.00 1020.36 1020.72 1021.16 1021.52 1021.84 1022.16 1022.52 1022.80 1023.20 1023.52 1023.68 1023.92 1024.04 1024.16 1024.32 1024.60 1024.88 1025.04 1025.24 1025.24 1025.28 1025.40 1025.52 1025.64 1025.72 1025.96 1026.04 1026.12 1026.16 1026.20 1026.20 1026.20 1026.20 1026.12 1025.80 1025.76 1026.24 1026.48 1026.48 1026.56 1026.60 1026.56 1026.64 1026.68 1026.64 1026.64 1026.68 1026.80 1026.92 1026.96 1026.96 1026.92 1026.84 1026.76 1026.80 1026.76 1026.80 1026.80
1018.12 1018.68 1019.16 1019.64 1020.04 1020.36 1020.72 1021.24 1021.56 1021.88 1022.16 1022.44 1022.80 1023.12 1023.44 1023.76 1024.00 1024.20 1024.40 1024.56 1024.64 1024.96 1025.16 1025.28 1025.28 1025.28 1025.44 1025.60 1025.72 1025.84 1026.08 1026.16 1026.20 1026.28 1026.36 1026.36 1026.36 1026.32 1026.28 1026.24 1026.12 1026.24 1026.52 1026.56 1026.60 1026.68 1026.56 1026.64 1026.68 1026.72 1026.72 1026.80 1026.92 1027.04 1027.04 1027.04 1027.00 1026.88 1026.80 1026.84 1026.80 1026.80 1026.72
1018.20 1018.84 1019.44 1019.92 1020.24 1020.64 1020.92 1021.20 1021.68 1022.12 1022.44 1022.88 1023.20 1023.44 1023.76 1023.88 1024.08 1024.40 1024.60 1024.60 1024.72 1025.04 1025.32 1025.40 1025.32 1025.32 1025.48 1025.68 1025.80 1025.96 1026.08 1026.08 1026.12 1026.24 1026.28 1026.36 1026.36 1026.40 1026.44 1026.40 1026.32 1026.36 1026.52 1026.56 1026.64 1026.72 1026.68 1026.60 1026.60 1026.68 1026.76 1026.92 1026.96 1026.96 1026.96 1027.08 1027.12 1026.96 1026.88 1026.84 1026.80 1026.72 1026.68
1018.40 1019.16 1019.84 1020.48 1021.00 1021.28 1021.48 1021.88 1022.16 1022.36 1022.72 1023.08 1023.28 1023.56 1023.72 1023.96 1024.20 1024.36 1024.60 1024.68 1024.76 1025.12 1025.36 1025.44 1025.32 1025.36 1025.56 1025.72 1025.80 1026.04 1026.04 1026.12 1026.20 1026.20 1026.36 1026.44 1026.40 1026.40 1026.44 1026.56 1026.60 1026.48 1026.52 1026.56 1026.68 1026.72 1026.80 1026.44 1026.56 1026.68 1026.84 1026.92 1027.00 1026.96 1026.88 1026.92 1027.00 1026.96 1026.88 1026.80 1026.76 1026.72 1026.64
1018.60 1019.36 1020.04 1020.72 1021.52 1022.12 1022.24 1022.24 1022.44 1022.60 1022.68 1023.08 1023.44 1023.68 1023.84 1024.12 1024.40 1024.44 1024.48 1024.68 1024.72 1024.88 1025.28 1025.44 1025.36 1025.44 1025.60 1025.72 1025.68 1025.88 1025.96 1026.04 1026.24 1026.32 1026.48 1026.56 1026.52 1026.48 1026.48 1026.52 1026.64 1026.64 1026.56 1026.64 1026.76 1026.76 1026.84 1026.44 1026.48 1026.72 1026.80 1026.76 1026.76 1026.72 1026.80 1027.00 1026.88 1026.88 1026.88 1026.84 1026.76 1026.72 1026.64
1018.24 1018.56 1018.64 1018.96 1019.48 1020.08 1020.92 1021.76 1022.32 1022.64 1022.92 1023.08 1023.48 1023.88 1024.04 1024.16 1024.48 1024.68 1024.68 1024.64 1024.76 1024.88 1025.16 1025.36 1025.44 1025.52 1025.64 1025.76 1025.84 1025.96 1025.96 1026.00 1026.08 1026.28 1026.28 1026.44 1026.60 1026.60 1026.64 1026.72 1026.80 1026.80 1026.72 1026.80 1026.80 1026.80 1026.80 1026.60 1026.32 1026.60 1026.56 1026.56 1026.68 1026.72 1027.04 1027.28 1026.88 1026.44 1026.52 1026.48 1026.64 1026.64 1026.56
1017.80 1018.12 1018.84 1019.52 1020.00 1020.68 1021.28 1021.76 1022.24 1022.56 1022.96 1023.24 1023.60 1023.96 1024.16 1024.28 1024.40 1024.68 1024.76 1024.68 1024.80 1025.00 1025.08 1025.36 1025.56 1025.64 1025.68 1025.80 1025.84 1025.88 1025.92 1025.80 1026.00 1026.16 1026.16 1026.12 1026.24 1026.56 1026.68 1026.80 1026.92 1026.96 1026.88 1026.88 1026.92 1026.92 1026.88 1026.88 1026.52 1026.76 1026.72 1026.44 1026.60 1026.72 1027.12 1027.24 1027.12 1026.92 1026.88 1027.04 1027.00 1027.00 1026.88
1018.04 1018.84 1019.52 1020.20 1020.64 1020.96 1021.24 1021.64 1022.16 1022.52 1022.92 1023.40 1023.68 1024.00 1024.20 1024.44 1024.52 1024.68 1024.80 1024.80 1024.88 1025.08 1025.12 1025.24 1025.56 1025.68 1025.76 1025.80 1025.84 1025.72 1025.84 1025.84 1026.04 1026.08 1026.16 1026.24 1026.24 1026.32 1026.56 1026.76 1026.96 1027.04 1027.00 1026.92 1026.92 1026.92 1026.96 1026.96 1026.96 1026.96 1026.88 1026.56 1026.72 1027.04 1027.24 1027.20 1027.08 1027.04 1026.84 1026.96 1027.00 1026.88 1026.84
1018.20 1018.60 1019.04 1019.60 1020.40 1021.08 1021.48 1021.64 1021.88 1022.28 1022.80 1023.24 1023.52 1023.84 1024.24 1024.48 1024.60 1024.76 1024.92 1024.96 1024.96 1025.04 1025.16 1025.24 1025.40 1025.72 1025.80 1025.80 1025.76 1025.68 1025.68 1025.92 1026.00 1026.00 1026.16 1026.28 1026.40 1026.44 1026.56 1026.76 1026.88 1027.04 1027.08 1027.00 1027.00 1027.04 1027.04 1027.00 1027.00 1026.92 1027.08 1027.12 1027.12 1027.12 1027.28 1027.40 1027.40 1027.08 1026.80 1026.76 1026.72 1026.72 1026.80
1018.12 1018.52 1019.00 1019.48 1020.08 1021.00 1021.56 1021.84 1022.12 1022.36 1022.72 1023.12 1023.44 1023.84 1024.24 1024.52 1024.68 1024.88 1025.00 1025.08 1025.12 1025.12 1025.20 1025.32 1025.44 1025.52 1025.72 1025.80 1025.76 1025.68 1025.64 1025.84 1026.08 1025.88 1025.88 1026.12 1026.24 1026.44 1026.72 1026.84 1027.00 1027.08 1027.12 1027.08 1027.08 1027.12 1027.12 1027.12 1027.08 1027.16 1027.20 1027.12 1027.20 1027.36 1027.52 1027.60 1027.24 1026.68 1026.80 1026.88 1026.84 1026.84 1026.96
1018.32 1018.96 1019.44 1019.96 1020.36 1020.92 1021.52 1021.88 1022.16 1022.40 1022.60 1022.80 1023.28 1023.80 1024.32 1024.56 1024.68 1024.80 1024.88 1025.04 1025.16 1025.24 1025.32 1025.32 1025.44 1025.52 1025.60 1025.72 1025.84 1025.72 1025.72 1025.80 1025.84 1025.84 1025.92 1026.12 1026.40 1026.52 1026.60 1026.72 1026.92 1027.08 1027.16 1027.12 1027.16 1027.20 1027.24 1027.24 1027.24 1027.28 1027.20 1027.24 1027.32 1027.48 1027.40 1026.92 1026.80 1026.84 1026.84 1026.88 1026.88 1027.00 1027.00
Wind_Speed
8 7 6 6 5 5 7 6 5 5 4 4 5 5 4 5 5 5 5 6 6 5 5 6 6 5 6 6 6 5 5 5 6 5 5 6 3 4 4 6 5 3 3 4 3 2 2 6 5 1 1 7 5 7 8 9 10 8 8 9 9 9 8
6 6 6 5 6 5 8 5 5 5 5 4 4 5 4 5 4 5 5 6 6 5 5 6 6 6 8 7 7 6 7 6 6 4 5 6 6 5 4 5 4 4 3 3 6 5 4 5 3 7 8 6 4 6 7 8 8 8 7 7 9 9 9
7 5 6 7 6 5 7 6 5 5 4 5 4 4 5 5 5 5 6 6 6 6 5 7 7 8 7 7 6 6 6 8 5 5 5 4 4 4 5 4 5 4 4 4 5 7 3 4 5 8 7 9 9 5 7 7 8 9 7 7 9 9 9
6 5 8 7 6 6 7 5 5 4 4 4 4 4 5 5 5 5 6 6 5 6 6 7 7 6 6 6 6 8 8 7 5 5 6 5 4 6 7 6 7 6 5 5 6 5 4 4 5 5 6 7 7 7 6 6 5 6 7 6 9 10 9
13 8 8 9 8 8 7 7 5 5 4 4 4 5 5 5 5 6 6 6 6 7 7 6 6 6 5 6 6 6 6 6 5 5 5 6 7 5 6 5 5 4 4 5 3 3 4 3 4 4 5 6 3 5 4 6 5 4 8 7 7 8 8
10 9 5 7 6 8 7 7 6 6 5 5 4 5 4 5 5 6 6 6 6 6 7 7 7 7 6 7 7 7 6 7 6 6 6 6 6 6 5 4 4 5 5 3 3 2 3 2 5 6 5 5 4 4 4 6 7 4 5 7 5 9 8
8 9 7 8 6 6 7 7 7 6 6 6 5 4 4 4 5 5 6 7 7 7 7 7 7 7 7 7 7 7 8 6 6 7 6 6 6 6 4 5 5 5 5 4 4 4 5 5 6 6 4 3 3 3 4 6 5 6 5 6 6 8 9
8 7 7 6 7 7 5 6 5 5 6 5 5 4 4 6 6 6 7 7 7 7 7 7 6 7 7 7 6 6 6 6 6 5 6 7 6 7 7 6 5 5 5 5 4 5 4 5 5 5 4 5 4 2 5 5 5 7 8 8 6 10 10
7 7 6 5 5 6 7 6 6 5 5 6 4 4 4 6 7 7 7 7 7 7 7 7 7 6 7 8 6 7 7 4 6 8 6 6 7 8 7 5 6 6 5 4 5 5 5 5 5 6 6 6 5 5 3 4 7 4 7 9 6 9 11
9 9 9 8 7 6 6 6 6 5 6 5 5 4 5 6 7 7 8 7 7 7 7 7 8 8 7 7 6 7 7 5 6 7 6 7 6 6 6 8 6 5 5 4 5 6 5 6 6 6 6 6 4 3 4 5 8 7 9 8 8 9 12
9 8 8 9 7 7 6 5 5 6 6 5 5 5 6 7 7 8 8 7 7 7 7 7 8 8 8 6 7 7 5 5 6 6 5 6 6 5 6 6 6 6 5 6 6 6 6 6 6 6 6 5 4 6 3 5 5 7 8 6 7 9 11
7 8 8 8 7 8 8 6 6 6 6 6 6 6 7 7 7 7 8 7 7 7 7 7 8 7 7 7 6 6 5 5 6 7 6 5 4 5 7 8 6 6 6 7 6 6 6 6 6 6 6 5 6 4 4 3 4 6 4 9 8 8 9
8 9 9 9 8 8 7 7 7 7 6 6 6 6 7 7 7 8 7 8 8 7 7 7 7 8 7 7 6 6 5 6 7 7 6 5 4 6 7 8 7 6 6 6 6 7 7 7 6 6 6 6 6 5 3 3 6 5 5 6 6 7 10
9 9 9 8 8 7 6 6 6 7 6 7 7 7 7 7 8 8 8 7 8 8 8 7 6 7 7 7 6 6 5 6 8 6 6 7 6 7 6 8 7 7 6 7 7 6 6 7 6 6 6 6 7 6 6 6 7 6 4 4 5 8 8
9 9 10 8 8 8 7 7 7 7 8 6 7 7 7 6 7 9 8 8 8 8 8 8 7 7 8 8 7 5 5 6 7 7 6 7 6 6 7 8 8 7 7 8 7 7 6 7 6 6 7 6 6 6 6 5 5 5 7 7 8 6 7
9 10 10 8 8 7 7 7 7 8 8 7 6 7 7 7 8 8 9 8 8 8 7 7 6 7 7 8 7 6 5 6 7 7 7 6 6 6 8 7 7 6 5 8 7 7 7 7 6 6 7 5 6 6 6 5 4 7 7 6 6 8 9
10 9 9 7 8 7 7 6 6 8 8 7 7 6 6 8 8 9 9 8 8 8 8 7 7 6 7 8 7 6 5 6 6 6 6 6 6 6 6 7 6 6 6 8 8 7 6 6 6 6 6 6 5 6 6 6 6 5 5 6 8 8 8
9 9 8 7 8 8 7 7 6 7 8 8 7 7 6 6 8 9 9 9 9 8 8 8 8 7 6 7 7 6 6 6 6 6 6 6 5 6 6 6 5 5 6 8 7 7 6 8 6 6 6 5 5 5 5 6 6 5 5 8 7 7 7
9 9 8 8 8 8 7 7 7 7 9 9 7 7 7 5 7 8 8 8 9 8 8 7 8 8 7 7 6 6 5 5 5 5 5 5 5 5 5 5 5 5 6 6 6 6 6 7 6 6 7 6 5 5 7 7 6 6 6 6 6 7 7
8 8 8 8 7 7 7 7 8 8 8 9 9 8 7 8 5 8 8 8 9 9 8 7 7 7 7 7 6 6 6 6 5 5 5 5 5 5 5 5 5 5 5 5 6 5 6 6 5 6 5 5 5 7 7 6 6 6 6 6 6 7 7
8 8 8 8 8 7 7 7 8 7 8 9 9 9 9 8 7 7 7 8 8 8 8 8 7 7 7 6 6 6 6 6 6 5 5 5 5 5 5 5 5 5 5 4 5 5 5 5 4 5 5 5 6 7 7 5 5 6 7 7 8 8 7
8 9 9 9 8 8 7 7 8 8 7 7 7 8 8 9 9 8 7 7 8 7 8 7 7 7 7 6 6 6 6 6 6 6 5 5 5 5 5 5 6 6 7 8 8 5 5 4 4 5 5 5 6 6 6 5 4 5 6 7 7 6 6
9 9 9 9 8 8 8 8 8 8 8 7 8 8 8 7 8 9 9 8 7 6 6 5 7 9 8 7 6 5 5 5 5 6 6 6 5 5 5 5 6 11 10 10 9 8 9 8 6 5 4 5 6 6 5 5 5 5 6 7 8 7 8
9 10 9 9 8 9 8 8 8 8 8 8 8 7 8 9 7 7 9 9 8 6 5 5 10 9 9 10 7 6 7 6 5 5 5 6 5 5 5 5 5 6 7 7 8 10 9 9 9 10 10 10 8 5 4 5 6 5 6 7 5 6 7
9 9 9 10 9 8 8 8 9 8 8 8 7 7 8 7 7 7 7 7 7 6 6 7 11 10 10 9 8 6 6 6 5 5 5 5 4 5 5 5 5 4 5 5 6 7 8 9 10 11 11 11 11 11 8 5 4 6 6 7 7 7 6
10 9 9 10 9 9 9 9 9 9 8 7 7 8 7 7 7 6 7 8 7 6 6 8 11 11 10 10 10 8 6 6 6 5 5 5 5 4 4 4 5 5 4 6 5 5 7 7 8 10 9 9 10 10 9 10 8 6 4 6 6 6 6
11 10 10 10 10 10 10 9 8 7 8 7 8 8 7 7 7 7 7 8 8 6 7 7 10 11 11 11 10 8 6 6 6 5 5 5 4 4 3 5 5 5 4 4 4 5 6 6 5 5 6 5 5 6 6 7 8 9 7 5 5 6 5
11 10 10 9 9 10 10 9 8 7 8 9 9 9 9 8 6 7 6 7 8 7 5 8 11 12 11 11 10 8 6 6 6 6 5 4 4 4 4 4 5 6 4 4 3 4 7 7 6 5 5 4 4 3 3 4 4 3 4 4 4 3 3
10 10 9 9 9 9 9 9 9 6 6 6 5 6 5 6 8 7 6 7 8 7 6 9 11 12 12 11 10 6 6 7 6 6 5 4 5 4 4 4 4 5 4 4 3 3 5 7 7 6 5 3 3 3 3 1 1 2 3 2 2 2 2
10 9 8 7 6 6 7 7 6 5 8 7 8 7 7 6 6 8 7 7 8 7 6 8 11 12 12 11 9 6 6 7 6 6 5 4 5 5 4 4 3 4 5 4 3 4 5 9 7 6 5 3 2 2 3 4 4 3 2 2 4 3 5
12 11 11 10 8 6 4 5 6 6 9 9 7 6 7 6 5 6 8 8 8 9 7 8 11 11 11 9 8 7 6 7 6 6 5 5 5 5 6 8 4 4 5 4 3 4 4 7 8 6 5 4 3 4 4 5 3 3 4 4 7 5 6
14 14 15 15 15 15 13 10 7 5 5 6 7 6 6 7 6 4 5 7 9 9 8 7 9 10 10 9 7 6 7 7 7 6 6 6 5 5 5 6 7 4 4 5 6 4 2 3 7 6 6 5 4 3 3 3 3 5 6 6 6 6 6
14 13 11 9 9 10 9 8 8 8 6 6 7 6 6 7 8 6 5 6 7 7 8 7 7 9 9 8 8 7 6 7 7 6 6 6 6 5 5 5 5 6 6 7 7 6 5 3 6 5 4 5 5 3 1 1 2 3 4 3 3 4 4
11 10 10 9 8 8 9 10 9 9 9 7 7 7 7 6 6 6 5 5 6 6 6 8 7 8 8 9 9 8 6 7 6 7 6 6 6 5 5 4 3 4 5 6 7 7 7 6 4 4 3 4 3 2 2 0 3 3 4 3 3 4 4
12 12 12 13 12 9 7 8 9 10 8 8 9 8 7 6 6 6 5 5 6 7 6 7 7 7 8 9 8 9 7 6 7 8 7 6 5 5 4 3 3 3 5 7 7 7 7 7 6 4 3 3 4 6 2 0 1 2 3 4 4 5 5
12 11 12 12 13 11 9 8 8 8 9 9 9 9 8 7 7 6 5 5 5 6 6 6 8 7 8 8 8 8 9 8 6 6 7 6 6 5 3 3 2 3 4 7 7 7 7 7 5 4 5 7 6 4 1 1 1 4 5 4 4 5 5
10 8 10 10 10 12 10 9 9 8 9 9 9 8 6 6 7 7 7 6 5 5 5 6 7 8 8 9 6 8 9 9 8 6 6 6 5 5 5 5 4 6 5 7 8 8 7 5 4 5 6 6 6 3 1 2 5 4 4 4 5 4 4
Wind_Direction
138 136 127 105 93 106 98 94 91 75 66 75 94 83 84 88 92 87 91 93 90 83 81 72 73 67 66 50 48 46 46 42 46 58 48 27 46 349 349 18 16 54 54 63 30 339 312 326 331 340 43 16 25 58 52 42 33 26 17 15 11 8 2
109 117 115 105 106 104 101 92 90 88 78 64 70 86 73 75 80 95 93 90 86 80 79 78 72 66 64 61 48 45 44 44 45 46 59 43 40 25 2 8 1 18 8 51 31 8 36 359 336 357 349 358 22 40 50 42 36 25 16 15 15 9 4
112 106 106 115 111 111 106 101 98 96 96 86 74 75 82 76 84 89 90 90 93 92 80 83 80 70 61 63 57 62 56 59 31 45 57 46 47 39 44 33 34 4 23 12 25 17 13 45 347 344 349 351 360 12 37 34 33 23 11 10 15 9 5
111 133 126 123 124 116 117 116 113 109 97 101 91 70 74 83 86 85 92 91 85 84 81 79 75 75 68 70 66 62 57 55 44 49 53 47 46 44 35 40 48 45 44 39 9 3 10 2 346 351 344 356 342 351 31 22 30 33 13 11 16 10 4
147 162 151 148 147 137 134 131 127 113 103 91 80 83 66 76 89 82 83 85 83 84 80 80 74 74 75 72 63 60 58 51 48 55 53 47 42 51 43 34 42 41 41 33 356 355 20 27 11 336 351 341 340 1 21 359 8 26 22 14 19 11 2
145 143 158 147 151 142 141 138 142 133 128 101 95 92 78 89 99 95 91 92 86 79 86 82 76 74 75 70 68 65 58 51 42 54 57 48 46 48 51 37 46 41 39 9 3 358 353 16 44 16 350 339 339 341 23 21 356 332 30 9 10 14 5
150 150 158 152 153 146 147 147 148 147 141 141 128 117 119 98 88 97 99 90 87 89 87 84 82 78 77 75 67 65 56 48 53 54 58 57 53 49 42 55 43 39 36 19 15 21 22 30 36 26 344 338 310 16 0 2 359 0 360 14 1 11 7
153 147 151 153 149 146 144 137 138 139 135 136 129 130 105 106 103 99 95 91 87 86 84 83 79 76 73 72 68 70 64 50 52 58 53 53 54 45 45 46 54 44 30 23 23 35 30 41 46 20 10 5 356 31 12 358 349 47 356 342 1 11 8
141 134 134 134 138 143 143 141 142 138 131 123 117 110 114 113 105 96 90 92 93 91 88 89 86 80 75 76 66 62 64 42 60 56 47 54 53 47 51 40 55 43 28 27 35 36 40 39 43 36 33 35 15 1 353 356 8 1 16 357 344 16 5
147 153 151 146 143 139 137 137 134 133 119 114 116 113 108 92 99 103 100 100 95 94 90 87 86 82 77 73 70 67 63 43 62 57 46 52 49 47 54 46 57 51 31 28 41 40 37 41 41 43 39 40 17 55 359 6 25 352 0 9 356 353 3
152 145 139 140 142 137 133 127 129 121 119 121 112 109 103 99 99 103 104 100 98 94 95 90 85 82 81 73 71 67 56 55 68 58 50 54 46 52 61 55 44 50 23 37 40 36 38 36 38 35 37 34 29 48 13 26 23 13 347 4 9 352 355
138 135 134 139 143 142 142 144 133 123 115 112 110 109 103 101 105 104 107 105 100 96 92 91 89 83 82 82 71 70 52 58 71 65 42 53 45 56 62 58 40 47 26 37 37 35 35 35 35 34 30 33 36 36 30 3 47 19 7 358 356 0 356
140 140 145 146 146 145 146 139 131 123 125 112 112 111 107 111 114 113 112 111 105 100 96 90 91 91 84 77 78 73 58 69 74 70 60 43 56 57 64 61 46 39 21 39 38 33 32 32 32 35 28 29 33 26 25 45 60 13 2 1 349 352 0
141 141 142 146 139 141 138 133 129 127 115 116 121 112 111 115 118 120 120 116 114 111 107 100 96 98 91 88 76 78 72 73 77 72 72 60 47 58 61 63 52 40 30 49 35 34 34 29 31 36 30 29 31 19 16 24 35 17 12 14 3 0 353
140 143 143 143 137 138 135 133 134 126 118 126 122 116 116 119 122 124 121 117 114 111 107 104 106 101 101 95 86 72 75 77 82 77 72 67 49 50 58 61 44 41 31 52 41 42 34 32 29 35 27 24 26 21 16 30 37 32 2 356 2 1 3
141 143 141 137 134 132 131 131 134 126 124 121 115 120 124 126 127 125 120 121 118 115 112 107 105 108 105 101 95 79 69 78 83 82 74 65 59 57 60 55 44 37 35 45 38 41 35 36 28 36 30 20 24 20 18 30 31 30 12 10 354 360 2
139 141 137 134 130 129 130 128 127 118 119 121 116 107 119 126 127 127 124 123 123 122 117 111 106 104 106 105 99 92 83 79 78 81 83 75 61 59 62 60 37 39 42 53 36 38 34 37 31 29 31 18 24 22 20 24 32 36 9 8 7 13 0
140 138 130 127 126 128 128 126 121 118 123 118 119 117 106 117 124 129 132 134 131 127 125 121 115 108 99 97 101 100 93 88 82 80 81 78 73 68 62 69 55 47 51 58 37 37 30 36 26 31 28 18 25 21 29 28 26 24 26 31 6 6 1
139 134 127 123 126 128 129 127 125 123 127 123 118 117 121 118 130 129 130 132 129 127 125 123 120 118 113 106 100 94 90 87 80 78 74 66 66 61 70 62 59 62 57 66 54 45 38 38 31 26 21 20 22 26 34 27 24 24 31 38 23 5 14
134 130 127 125 124 124 125 130 129 130 130 129 129 123 115 114 112 124 127 129 131 130 127 124 123 120 115 109 107 106 98 90 83 78 66 71 63 66 65 58 58 61 68 69 70 66 63 50 41 30 18 23 16 37 34 28 19 25 32 34 29 27 10
126 123 121 121 121 122 124 124 123 122 124 127 130 130 131 124 116 114 124 126 127 128 128 125 122 121 116 120 119 109 110 106 95 80 70 59 58 59 58 55 53 63 75 79 97 87 82 79 56 40 11 27 29 39 36 24 19 26 32 33 29 17 21
123 123 123 122 122 123 122 121 119 119 119 120 117 121 123 127 123 113 111 121 125 129 133 137 140 138 130 122 121 117 113 107 105 102 84 67 51 53 47 50 55 61 76 81 83 86 86 94 87 67 25 31 37 38 36 28 22 32 40 39 32 21 20
132 128 128 128 128 126 124 123 120 117 117 119 120 121 120 117 125 130 127 123 124 130 133 137 144 141 142 140 131 121 109 99 103 107 105 93 65 55 49 49 55 68 72 75 75 81 79 74 70 71 65 40 34 36 31 31 30 33 37 39 30 13 21
136 135 133 127 127 127 124 122 118 116 118 121 122 123 123 125 128 132 133 135 133 133 134 137 139 141 142 137 128 125 117 107 97 96 96 103 97 74 54 54 49 59 60 69 75 79 80 82 80 74 65 59 52 42 17 31 42 27 41 47 30 24 24
137 135 133 133 133 130 127 124 123 125 125 121 118 116 119 124 127 129 125 124 128 132 130 135 137 139 140 137 131 123 118 114 104 93 97 97 95 90 81 66 55 43 61 78 92 91 85 83 82 75 68 62 56 48 44 35 38 45 38 46 38 26 14
137 136 136 136 136 135 132 127 126 128 126 124 120 120 127 126 129 130 131 131 127 128 126 141 141 137 132 128 123 116 109 112 108 102 95 94 92 91 97 94 85 62 40 78 94 102 106 93 77 72 64 58 57 52 45 46 44 61 59 57 51 35 24
141 143 143 143 142 139 135 133 131 125 123 122 123 123 125 128 129 133 137 132 127 127 128 147 140 133 129 127 122 115 112 110 102 100 97 94 97 101 102 112 102 83 56 64 92 114 108 96 92 65 52 47 46 32 36 40 50 57 59 65 54 46 8
145 146 144 141 141 140 136 133 132 136 139 143 144 146 146 140 136 131 131 130 127 128 138 147 141 132 129 126 121 115 114 108 102 96 92 92 97 94 85 94 96 102 97 97 108 150 123 123 103 86 66 48 30 23 16 21 21 45 57 50 55 53 8
139 139 138 140 142 140 139 139 134 126 115 105 99 110 104 119 132 135 137 134 125 129 142 153 141 133 131 131 126 113 118 110 103 97 81 78 78 74 77 80 98 98 100 101 89 139 148 126 108 98 85 42 26 5 16 22 94 87 87 67 57 38 18
135 126 120 113 108 118 121 113 112 120 121 127 134 137 140 140 142 140 140 139 133 136 145 161 143 138 138 138 125 118 118 107 100 92 82 67 68 75 83 77 79 107 95 92 84 135 164 125 105 108 104 77 25 9 348 327 344 29 33 55 29 47 30
124 116 112 118 112 92 88 118 135 145 142 143 142 143 139 131 141 149 146 148 151 145 152 161 146 142 144 147 135 132 126 115 108 102 89 64 62 66 61 73 85 88 99 97 100 128 181 129 116 123 121 107 63 28 347 340 335 48 64 72 34 25 31
137 147 158 155 155 156 154 153 145 132 131 127 130 134 133 135 134 142 149 144 149 142 147 159 154 149 146 143 134 131 128 120 114 110 105 86 62 70 55 49 54 61 89 104 99 110 124 136 126 139 141 115 98 54 313 320 355 32 18 17 12 10 11
154 156 146 138 131 131 135 132 139 136 131 132 135 137 137 142 144 155 157 147 145 147 147 155 164 159 152 148 144 136 137 124 123 124 112 114 94 57 58 51 51 57 80 96 103 103 99 107 131 139 131 123 127 136 305 341 57 76 65 58 17 13 12
135 117 124 128 128 132 144 145 140 139 135 132 131 132 139 144 143 151 160 153 144 159 158 157 171 171 163 157 154 140 134 126 131 120 118 99 103 104 77 55 36 57 80 92 92 92 98 101 110 120 131 139 172 162 89 252 53 56 68 41 29 26 18
128 141 141 140 142 142 145 146 146 142 140 143 142 140 142 145 147 153 162 161 166 168 174 166 165 181 178 170 163 147 130 144 141 126 113 105 106 102 126 126 86 64 86 90 87 85 86 87 90 87 93 108 100 91 106 142 73 73 54 31 25 23 13
149 149 150 148 140 140 144 143 141 142 142 142 140 142 147 149 148 153 162 184 186 180 179 175 178 177 187 186 173 151 138 138 154 125 123 127 133 144 164 177 176 100 103 96 89 85 83 85 82 82 84 71 71 88 93 159 174 69 49 35 30 22 356
140 139 135 134 136 139 147 148 146 153 153 148 146 143 151 152 152 158 169 183 193 198 196 184 191 191 184 188 187 155 143 145 146 134 126 135 152 144 143 154 139 122 119 105 95 84 78 75 90 79 75 74 62 45 167 86 53 63 72 38 30 2 354